BEIDOU-2 IGSO-1 (C06) 1 36828U 10036A 26122.76966646 -.00000054 00000+0 00000+0 0 9998 2 36828 54.2940 163.3702 0058449 224.0964 217.0944 1.00286245 57649 BEIDOU-2 G4 (C04) 1 37210U 10057A 26126.79300499 -.00000104 00000+0 00000+0 0 9998 2 37210 3.5450 69.1768 0005731 214.4091 26.4994 1.00273481 56872 BEIDOU-2 IGSO-2 (C07) 1 37256U 10068A 26126.82717209 -.00000199 00000+0 00000+0 0 9999 2 37256 47.6271 272.3432 0052277 211.0703 144.6242 1.00297293 56379 BEIDOU-2 IGSO-3 (C08) 1 37384U 11013A 26122.65036828 -.00000203 00000+0 00000+0 0 9996 2 37384 62.3500 40.5817 0034161 187.9361 334.3867 1.00279445 55206 BEIDOU-2 IGSO-4 (C09) 1 37763U 11038A 26126.60740185 .00000026 00000+0 00000+0 0 9993 2 37763 54.5896 166.0568 0159107 231.8643 136.4509 1.00254468 54239 BEIDOU-2 IGSO-5 (C10) 1 37948U 11073A 26126.88705797 -.00000166 00000+0 00000+0 0 9993 2 37948 47.7565 272.0552 0111311 220.7863 144.2611 1.00258472 52720 BEIDOU-2 G5 (C05) 1 38091U 12008A 26126.98683583 .00000066 00000+0 00000+0 0 9999 2 38091 3.4717 69.9301 0011461 271.6789 297.1826 1.00270347 51955 BEIDOU-2 M3 (C11) 1 38250U 12018A 26126.30597586 -.00000048 00000+0 00000+0 0 9991 2 38250 55.7944 306.2858 0019610 277.4664 82.3006 1.86230143 95167 BEIDOU-2 M4 (C12) 1 38251U 12018B 26125.16429260 -.00000056 00000+0 00000+0 0 9997 2 38251 55.6971 305.5420 0010921 281.6477 78.2167 1.86229726 95144 BEIDOU-2 M6 (C14) 1 38775U 12050B 26125.94808793 -.00000034 00000+0 00000+0 0 9998 2 38775 56.5093 64.2906 0014415 350.2265 9.7258 1.86231041 92520 BEIDOU-2 G6 (C02) 1 38953U 12059A 26126.92050312 -.00000167 00000+0 00000+0 0 9997 2 38953 4.3177 73.9504 0010822 319.0047 247.2512 1.00273833 49493 BEIDOU-3S IGSO-1S (C31) 1 40549U 15019A 26126.92292980 -.00000162 00000+0 00000+0 0 9994 2 40549 49.2738 295.9558 0037617 191.2294 164.3106 1.00259866 40655 BEIDOU-3S M2S (C58) 1 40748U 15037A 26124.83041021 -.00000058 00000+0 00000+0 0 9995 2 40748 54.9099 303.5378 0007402 269.6593 90.2396 1.86232149 73312 BEIDOU-3S M1S (C57) 1 40749U 15037B 26126.11688451 -.00000049 00000+0 00000+0 0 9993 2 40749 54.9059 303.4819 0004206 54.9014 305.1243 1.86255015 73349 BEIDOU-3S IGSO-2S (C56) 1 40938U 15053A 26126.84191608 -.00000143 00000+0 00000+0 0 9999 2 40938 49.2885 259.2728 0063838 191.0131 174.1665 1.00269718 38949 BEIDOU-2 IGSO-6 (C13) 1 41434U 16021A 26126.72386356 -.00000156 00000+0 00000+0 0 9994 2 41434 60.1706 38.4532 0057694 232.5247 309.0355 1.00267255 37068 BEIDOU-2 G7 (C03) 1 41586U 16037A 26126.92578981 -.00000345 00000+0 00000+0 0 9998 2 41586 1.6185 68.9300 0007669 356.0393 243.6724 1.00273952 6474 BEIDOU-3 M1 (C19) 1 43001U 17069A 26126.25043531 -.00000031 00000+0 00000+0 0 9994 2 43001 56.6571 64.4653 0011857 319.1610 40.7318 1.86231580 57820 BEIDOU-3 M2 (C20) 1 43002U 17069B 26125.65211997 -.00000036 00000+0 00000+0 0 9996 2 43002 56.6561 64.5211 0009966 341.8302 18.1130 1.86230844 57800 BEIDOU-3 M7 (C27) 1 43107U 18003A 26125.39370583 -.00000056 00000+0 00000+0 0 9991 2 43107 54.3671 303.8061 0005274 83.3858 276.6594 1.86228341 56552 BEIDOU-3 M8 (C28) 1 43108U 18003B 26123.72828859 -.00000068 00000+0 00000+0 0 9994 2 43108 54.3615 303.8460 0002175 282.8111 77.1479 1.86231131 56534 BEIDOU-3 M4 (C22) 1 43207U 18018A 26126.31870888 -.00000031 00000+0 00000+0 0 9997 2 43207 56.6164 64.5285 0007740 3.9740 356.0138 1.86231562 55962 BEIDOU-3 M3 (C21) 1 43208U 18018B 26126.38516234 -.00000030 00000+0 00000+0 0 9996 2 43208 56.6156 64.5302 0009821 330.8910 29.0363 1.86231483 55966 BEIDOU-3 M9 (C29) 1 43245U 18029A 26125.52886015 -.00000053 00000+0 00000+0 0 9996 2 43245 54.2337 301.4397 0000912 85.4860 274.5070 1.86228626 55101 BEIDOU-3 M10 (C30) 1 43246U 18029B 26126.00039638 -.00000049 00000+0 00000+0 0 9997 2 43246 54.2309 301.4497 0004796 35.9855 324.0304 1.86229488 55096 BEIDOU-2 IGSO-7 (C16) 1 43539U 18057A 26123.67860174 -.00000046 00000+0 00000+0 0 9997 2 43539 55.2660 163.5842 0103557 236.0074 178.8558 1.00264653 28685 BEIDOU-3 M5 (C23) 1 43581U 18062A 26126.22462587 .00000031 00000+0 00000+0 0 9993 2 43581 54.0836 183.7310 0004634 289.0991 70.9334 1.86228874 52859 BEIDOU-3 M6 (C24) 1 43582U 18062B 26126.08789042 .00000031 00000+0 00000+0 0 9996 2 43582 54.0833 183.7250 0004745 19.9428 340.1588 1.86231566 52853 BEIDOU-3 M12 (C26) 1 43602U 18067A 26126.02628578 .00000033 00000+0 00000+0 0 9996 2 43602 54.1782 182.4700 0007900 33.2666 326.8664 1.86227923 52336 BEIDOU-3 M11 (C25) 1 43603U 18067B 26126.69818081 .00000032 00000+0 00000+0 0 9999 2 43603 54.1751 182.4111 0004515 17.1412 342.9553 1.86227403 52371 BEIDOU-3 M13 (C32) 1 43622U 18072A 26126.11630549 -.00000033 00000+0 00000+0 0 9996 2 43622 56.5901 64.0469 0008621 319.9578 39.9602 1.86231409 51877 BEIDOU-3 M14 (C33) 1 43623U 18072B 26126.51870639 -.00000030 00000+0 00000+0 0 9994 2 43623 56.5922 64.0281 0006755 344.8257 15.1372 1.86231454 51870 BEIDOU-3 M16 (C35) 1 43647U 18078A 26125.60077962 -.00000052 00000+0 00000+0 0 9997 2 43647 54.1298 301.4783 0007977 39.2814 320.7592 1.86232489 51364 BEIDOU-3 M15 (C34) 1 43648U 18078B 26125.19313699 -.00000055 00000+0 00000+0 0 9995 2 43648 54.1251 301.4924 0005225 51.3197 308.7090 1.86232511 51370 BEIDOU-3 G1 (C59) 1 43683U 18085A 26126.93558319 -.00000099 00000+0 00000+0 0 9993 2 43683 2.9703 98.4651 0007591 336.9190 286.1742 1.00273454 27648 BEIDOU-3 M17 (C36) 1 43706U 18093A 26126.97050999 .00000031 00000+0 00000+0 0 9998 2 43706 54.1671 183.6951 0009091 291.5181 72.2925 1.86228658 50777 BEIDOU-3 M18 (C37) 1 43707U 18093B 26124.14301252 .00000040 00000+0 00000+0 0 9997 2 43707 54.1677 183.7828 0007225 323.5923 36.4466 1.86226703 50710 BEIDOU-3 IGSO-1 (C38) 1 44204U 19023A 26120.68081943 -.00000239 00000+0 00000+0 0 9992 2 44204 58.6323 38.1392 0024402 235.3065 306.5734 1.00254513 6730 BEIDOU-2 G8 (C01) 1 44231U 19027A 26126.93254985 -.00000239 00000+0 00000+0 0 9998 2 44231 1.5540 74.4099 0011198 281.5386 349.0260 1.00275760 25668 BEIDOU-3 IGSO-2 (C39) 1 44337U 19035A 26125.00223196 -.00000073 00000+0 00000+0 0 9997 2 44337 55.2377 159.2418 0039428 215.2872 328.9066 1.00280508 25235 BEIDOU-3 M24 (C46) 1 44542U 19061A 26123.67526829 .00000043 00000+0 00000+0 0 9990 2 44542 54.3944 184.2291 0008081 4.9676 355.1289 1.86229129 44962 BEIDOU-3 M23 (C45) 1 44543U 19061B 26123.37815339 .00000045 00000+0 00000+0 0 9997 2 44543 54.3931 184.2075 0005130 346.2443 86.5306 1.86227528 44961 BEIDOU-3 IGSO-3 (C40) 1 44709U 19073A 26120.85038409 -.00000212 00000+0 00000+0 0 9996 2 44709 54.8842 281.4069 0042404 188.8195 170.9972 1.00251230 23982 BEIDOU-3 M22 (C44) 1 44793U 19078A 26126.19924365 -.00000049 00000+0 00000+0 0 9990 2 44793 53.9751 301.3041 0007224 46.9339 313.1105 1.86227521 43869 BEIDOU-3 M21 (C43) 1 44794U 19078B 26126.33927413 -.00000048 00000+0 00000+0 0 9993 2 44794 53.9482 301.2612 0005067 44.6799 315.3451 1.86228015 43870 BEIDOU-3 M19 (C41) 1 44864U 19090A 26126.84803854 -.00000028 00000+0 00000+0 0 9991 2 44864 56.5244 64.1569 0019362 296.0974 242.0206 1.86231784 43466 BEIDOU-3 M20 (C42) 1 44865U 19090B 26126.71506981 -.00000029 00000+0 00000+0 0 9990 2 44865 56.5259 64.1956 0017144 308.7508 229.8187 1.86231832 43446 BEIDOU-3 G2 (C60) 1 45344U 20017A 26126.91980979 -.00000132 00000+0 00000+0 0 9994 2 45344 2.7819 46.6969 0002967 4.2203 225.0278 1.00271448 22843 BEIDOU-3 G3 (C61) 1 45807U 20040A 26126.92578981 -.00000345 00000+0 00000+0 0 9997 2 45807 2.3465 67.3313 0004161 340.5136 260.6414 1.00265998 21650 BEIDOU-3 G4 (C62) 1 56564U 23066A 26126.93168317 -.00000274 00000+0 00000+0 0 9990 2 56564 0.5424 321.8684 0003503 157.7873 220.5910 1.00269146 10980 BEIDOU-3 M28 (C50) 1 58654U 23207A 26125.87952054 -.00000037 00000+0 00000+0 0 9997 2 58654 55.7172 63.7301 0004377 327.1119 32.8415 1.86229843 16050 BEIDOU-3 M26 (C48) 1 58655U 23207B 26126.21397488 -.00000035 00000+0 00000+0 0 9999 2 58655 55.7195 63.7052 0004660 307.6794 52.2605 1.86229840 16049 BEIDOU-3 M25 (C47) 1 61186U 24168B 26126.58324745 -.00000047 00000+0 00000+0 0 9998 2 61186 54.5117 303.6879 0003238 316.4399 48.2931 1.86230365 11018 BEIDOU-3 M27 (C49) 1 61187U 24168C 26126.91005968 -.00000046 00000+0 00000+0 0 9998 2 61187 54.5068 303.6596 0002431 40.6191 318.2408 1.86230452 8483